Погода в Березовском

Россия / Алтайский край     53°44′56″N   80°15′54″E
темп.,
°C
ветер,
м/с
пор.,
м/с
влажн.,
%
обл.,
%
осадки,
мм/ч
давл.,
гПа
погр.,
м
20 мая, пт
пт2001:00+13юз412440 0.0 1011252
04:00+12юз4114862 0.0 1013290
07:00+12юз411550 0.0 1014342
10:00+18зюз513390 0.0 10141993
13:00+21зюз81131100 0.0 10132418
16:00+21зюз81128100 0.0 10132757
19:00+20зюз5123997 0.0 10122484
22:00+16ююз375199 0.0 1012140
21 мая, сб
сб2101:00+15зюз495457 0.0 1012213
04:00+12зюз356923 0.0 101389
07:00+13зюз1270100 0.0 101462
10:00+19ю234884 0.0 1013611
13:00+24ю573724 0.0 10111345
16:00+27ююз452917 0.0 10092147
19:00+27ю353139 0.0 10072178
22:00+20вюв48456 0.0 100698
22 мая, вс
вс2201:00+18юв41148100 0.0 1004180
04:00+16вюв41153100 0.0 1003200
07:00+17вюв51456100 0.0 1001333
10:00+21юв694795 0.0 999530
13:00+27ю573397 0.0 9981375
16:00+31ююз48225 0.0 9972687
19:00+23зсз8135415 0.0 10001232
22:00+17з81350100 0.6 1007779
23 мая, пн
пн2301:00+15з61230100 0.6 10121272
04:00+10юз3643100 0.0 1016151
07:00+10зюз410470 0.0 1019486
10:00+15зюз68370 0.0 10201205
13:00+18зюз56306 0.0 10201693
16:00+20зюз34275 0.0 10201919
19:00+20ю34276 0.0 10191914
22:00+15юв343790 0.0 101946
24 мая, вт
вт2401:00+13юв4737100 0.0 101890
04:00+11ююв410510 0.0 1018161
07:00+12ююв38620 0.0 1018169
10:00+19ююв3440100 0.0 1018512
13:00+23ссв1228100 0.0 10171087
16:00+25св3427100 0.0 10161801
19:00+24св343312 0.0 10151707
22:00+18в3349100 0.0 101620